Flag Weather past 2 weeks in Tucson, Arizona, U.S.A.

Now
60 °F

Sunny.


Feels Like: 57 °F
Forecast: 41 / 75 °F
Wind: 13 mph from Northwest

Location: Davis-Monthan Air Force Base

Current Time: Nov 25, 2014 at 5:57:19 PM

Latest Report: Nov 25, 2014 at 4:58 PM


Visibility: 10 mi

Pressure: 30.27 "Hg

Humidity: 9%

Dew point: 1 °F

Location of TucsonLocation

Historic Weather in Tucson — Graph

°F

Tucson temperature yesterday

Maximum temperature yesterday: 62 °F (at 2:58 PM)
Minimum temperature yesterday: 35 °F (at 6:58 AM)
Average temperature yesterday: 49 °F

Past Weeks' High & Low Weather Summary

 TemperatureHumidityPressure
High81 °F (Nov 10, 3:58 PM)82% (Nov 15, 5:58 AM)30.40 "Hg (Nov 15, 5:58 AM)
Low35 °F (Nov 24, 6:58 AM)7% (Nov 24, 1:58 PM)29.73 "Hg (Nov 10, 4:58 PM)
Average58 °F37%29.99 "Hg
* Reported Nov 10 3:58 PM — Nov 25 3:58 PM, Tucson, Weather by CustomWeather, © 2014

Note: Actual official high and low records may vary slightly from our data, if they occured in-between our weather recording intervals... More about our weather records

Advertising

Tucson weather history for previous 24 hours

 ConditionsComfort  
Time TempWeatherWind HumidityBarometerVisibility
3:58 PM
Nov 25
62 °FSunny.7 mph8%30.26 "Hg10 mi
2:58 PM62 °FSunny.9 mph7%30.27 "Hg10 mi
1:58 PM62 °FSunny.10 mph7%30.29 "Hg10 mi
12:58 PM61 °FSunny.7 mph8%30.30 "Hg10 mi
11:58 AM59 °FSunny.6 mph8%30.33 "Hg10 mi
10:58 AM56 °FSunny.2 mph9%30.37 "Hg10 mi
9:58 AM52 °FSunny.6 mph14%30.40 "Hg10 mi
8:58 AM47 °FSunny.3 mph17%30.40 "Hg10 mi
7:58 AM40 °FSunny.1 mph22%30.38 "Hg10 mi
6:58 AM37 °FClear.5 mph24%30.38 "Hg10 mi
5:58 AM38 °FClear.8 mph21%30.35 "Hg10 mi
4:58 AM38 °FClear.16 mph21%30.33 "Hg10 mi
3:58 AM39 °FClear.6 mph21%30.32 "Hg10 mi
2:58 AM46 °FClear.10 mph15%30.31 "Hg10 mi
1:58 AM40 °FClear.1 mph21%30.31 "Hg10 mi
12:58 AM42 °FClear.6 mph21%30.30 "Hg10 mi
11:58 PM
Nov 24
44 °FClear.9 mph21%30.29 "Hg10 mi
10:58 PM40 °FClear.5 mph24%30.28 "Hg10 mi
9:58 PM44 °FClear.5 mph21%30.28 "Hg10 mi
8:58 PM49 °FClear.6 mph17%30.28 "Hg10 mi
7:58 PM50 °FCool.N/A16%30.24 "HgN/A
6:58 PM53 °FClear.8 mph15%30.21 "Hg10 mi
5:58 PM55 °FClear.9 mph12%30.19 "Hg10 mi
Weather by CustomWeather, © 2014

See weather overviewHow to use our weather pages